Marion, IN

5:15 AM EDT on April 20, 2018 (GMT -0400)
Marion Municipal

Weather History for KMZZ - October, 2012

Change the Weather History Date:

Thursday, October 18, 2012

  Actual Average (KMIE) Record (KMIE)
Temperature  
Mean Temperature 53 °F -  
Max Temperature 60 °F 61 °F 82 °F (1965)
Min Temperature 46 °F 39 °F 27 °F (2015)
Degree Days  
Heating Degree Days 12    
Growing Degree Days 3 (Base 50)    
Moisture  
Dew Point 41 °F    
Average Humidity 65    
Maximum Humidity 94    
Minimum Humidity 33    
Precipitation  
Precipitation 0.37 in - - ()
Sea Level Pressure  
Sea Level Pressure 29.54 in    
Wind  
Wind Speed 15 mph (SW)    
Max Wind Speed 25 mph    
Max Gust Speed 33 mph    
Visibility 8 miles    
Events Rain    
Averages and records for this station are not official NWS values.
T = Trace of Precipitation, MM = Missing Value Source: NWS Daily Summary

Daily Weather History Graph

Daily Weather History Graph

Search for Another Location

Airport or City:

Astronomy

Oct. 18, 2012 Rise Set
Actual Time 7:57 AM EDT 6:57 PM EDT
Civil Twilight 7:29 AM EDT 7:25 PM EDT
Nautical Twilight 6:58 AM EDT 7:56 PM EDT
Astronomical Twilight 6:26 AM EDT 8:28 PM EDT
Moon 11:39 AM EDT (10/18) 9:30 PM EDT (10/18)
Length of Visible Light 11h 55m
Length of Day
11h 00m
Waxing Crescent, 14% of the Moon is Illuminated
Oct 18
Waxing Crescent
Oct 21
First Quarter
Oct 29
Full
Nov 6
Last Quarter
Nov 13
New

Hourly Weather History & Observations

Time (EDT) Temp. Dew Point Humidity Pressure Visibility Wind Dir Wind Speed Gust Speed Precip Events Conditions
12:15 AM 60.6 °F 50.7 °F 70% 29.50 in 7.0 mi South 13.8 mph - N/A Rain Light Rain
12:35 AM 60.3 °F 50.5 °F 70% 29.49 in 7.0 mi South 12.7 mph - N/A   Overcast
12:55 AM 60.4 °F 50.4 °F 69% 29.47 in 10.0 mi South 13.8 mph 20.7 mph N/A   Overcast
1:15 AM 60.6 °F 50.4 °F 69% 29.46 in 7.0 mi South 10.4 mph - N/A   Overcast
1:35 AM 59.4 °F 50.9 °F 74% 29.46 in 10.0 mi SSW 9.2 mph - N/A   Overcast
1:55 AM 58.8 °F 50.7 °F 74% 29.45 in 10.0 mi SSW 11.5 mph - N/A   Scattered Clouds
2:15 AM 59.2 °F 50.4 °F 73% 29.45 in 7.0 mi SSW 18.4 mph 26.5 mph N/A   Mostly Cloudy
2:35 AM 58.8 °F 50.4 °F 73% 29.45 in 7.0 mi SSW 21.9 mph 28.8 mph N/A Rain Light Rain
2:55 AM 57.0 °F 51.1 °F 81% 29.46 in 5.0 mi SSW 23.0 mph 29.9 mph 0.03 in Rain Light Rain
3:15 AM 55.8 °F 52.3 °F 88% 29.44 in 5.0 mi SSW 18.4 mph 24.2 mph 0.02 in Rain Light Rain
3:35 AM 55.4 °F 52.7 °F 91% 29.43 in 7.0 mi SSW 17.3 mph 28.8 mph 0.04 in Rain Light Rain
4:15 AM 55.2 °F 52.9 °F 92% 29.41 in 7.0 mi South 15.0 mph 20.7 mph 0.01 in Rain Light Rain
4:35 AM 55.0 °F 52.9 °F 92% 29.40 in 10.0 mi South 12.7 mph 18.4 mph 0.01 in Rain Light Rain
4:55 AM 55.2 °F 52.9 °F 92% 29.40 in 7.0 mi South 16.1 mph 20.7 mph 0.01 in   Overcast
5:15 AM 54.5 °F 51.8 °F 91% 29.42 in 4.0 mi West 19.6 mph 27.6 mph 0.07 in Rain Heavy Rain
5:35 AM 50.7 °F 48.2 °F 91% 29.43 in 5.0 mi West 15.0 mph 20.7 mph 0.12 in Rain Light Rain
5:55 AM 50.2 °F 48.2 °F 93% 29.43 in 4.0 mi West 10.4 mph - 0.15 in Rain Light Rain
6:15 AM 50.0 °F 48.2 °F 94% 29.45 in 4.0 mi WSW 15.0 mph - 0.04 in Rain Light Rain
6:35 AM 49.8 °F 47.7 °F 92% 29.46 in 7.0 mi West 20.7 mph 27.6 mph 0.07 in Rain Light Rain
6:55 AM 49.5 °F 47.1 °F 92% 29.47 in 5.0 mi West 11.5 mph - 0.13 in Rain Rain
7:15 AM 49.1 °F 46.9 °F 92% 29.47 in 7.0 mi WSW 12.7 mph - 0.01 in Rain Light Rain
7:35 AM 49.3 °F 47.3 °F 93% 29.49 in 10.0 mi WSW 11.5 mph 16.1 mph 0.01 in   Overcast
7:55 AM 49.3 °F 45.9 °F 88% 29.50 in 10.0 mi WSW 16.1 mph - 0.01 in   Scattered Clouds
8:15 AM 49.1 °F 44.2 °F 83% 29.51 in 5.0 mi WSW 12.7 mph - N/A   Haze
8:35 AM 49.1 °F 43.7 °F 82% 29.52 in 4.0 mi WSW 16.1 mph 21.9 mph N/A   Haze
8:55 AM 48.4 °F 42.3 °F 79% 29.52 in 10.0 mi WSW 16.1 mph 21.9 mph N/A   Scattered Clouds
9:15 AM 48.0 °F 41.7 °F 79% 29.54 in 4.0 mi WSW 13.8 mph - N/A   Haze
9:35 AM 48.7 °F 42.3 °F 78% 29.54 in 4.0 mi SW 16.1 mph 20.7 mph N/A   Haze
9:55 AM 49.5 °F 42.6 °F 77% 29.56 in 7.0 mi WSW 13.8 mph 23.0 mph N/A   Clear
10:15 AM 49.8 °F 41.7 °F 74% 29.56 in 10.0 mi WSW 13.8 mph 21.9 mph N/A   Clear
10:35 AM 50.4 °F 41.4 °F 71% 29.56 in 10.0 mi WSW 12.7 mph 21.9 mph N/A   Clear
10:55 AM 51.1 °F 40.8 °F 68% 29.57 in 10.0 mi WSW 13.8 mph 18.4 mph N/A   Clear
11:15 AM 51.8 °F 40.5 °F 65% 29.57 in 10.0 mi SW 16.1 mph 23.0 mph N/A   Clear
11:35 AM 52.5 °F 40.8 °F 64% 29.58 in 10.0 mi SSW 16.1 mph 21.9 mph N/A   Clear
12:15 PM 55.0 °F 39.9 °F 57% 29.58 in 7.0 mi SSW 17.3 mph 27.6 mph N/A   Clear
12:35 PM 55.6 °F 39.9 °F 56% 29.58 in 10.0 mi SSW 20.7 mph 26.5 mph N/A   Clear
12:55 PM 56.1 °F 38.7 °F 52% 29.58 in 7.0 mi SSW 19.6 mph 32.2 mph N/A   Clear
1:15 PM 57.2 °F 39.9 °F 52% 29.57 in 10.0 mi SW 21.9 mph 31.1 mph N/A   Clear
1:35 PM 57.9 °F 38.7 °F 49% 29.57 in 7.0 mi SW 25.3 mph 28.8 mph N/A   Clear
1:55 PM 58.1 °F 37.9 °F 47% 29.57 in 10.0 mi SSW 23.0 mph 31.1 mph N/A   Scattered Clouds
2:15 PM 57.9 °F 37.6 °F 47% 29.56 in 10.0 mi SW 23.0 mph 32.2 mph N/A   Mostly Cloudy
2:35 PM 58.5 °F 35.2 °F 42% 29.56 in 10.0 mi SW 24.2 mph 31.1 mph N/A   Scattered Clouds
2:55 PM 59.0 °F 32.5 °F 37% 29.56 in 7.0 mi SW 25.3 mph 33.4 mph N/A   Mostly Cloudy
3:15 PM 60.6 °F 31.6 °F 34% 29.56 in 10.0 mi WSW 24.2 mph 32.2 mph N/A   Scattered Clouds
3:35 PM 60.6 °F 31.1 °F 33% 29.55 in 10.0 mi SW 24.2 mph 33.4 mph N/A   Scattered Clouds
3:55 PM 60.4 °F 31.3 °F 33% 29.55 in 10.0 mi SW 18.4 mph 32.2 mph N/A   Scattered Clouds
4:15 PM 59.9 °F 30.9 °F 33% 29.56 in 10.0 mi SW 23.0 mph 32.2 mph N/A   Mostly Cloudy
4:35 PM 59.7 °F 31.8 °F 35% 29.56 in 10.0 mi SSW 16.1 mph 29.9 mph N/A   Scattered Clouds
4:55 PM 59.5 °F 32.7 °F 36% 29.56 in 10.0 mi SW 19.6 mph 23.0 mph N/A   Mostly Cloudy
5:15 PM 58.5 °F 32.7 °F 38% 29.57 in 10.0 mi SW 21.9 mph 25.3 mph N/A   Overcast
5:35 PM 57.9 °F 31.1 °F 36% 29.58 in 7.0 mi SW 19.6 mph 31.1 mph N/A   Overcast
5:55 PM 56.8 °F 31.6 °F 38% 29.58 in 5.0 mi SW 17.3 mph 25.3 mph N/A   Haze
6:15 PM 56.5 °F 31.1 °F 38% 29.59 in 5.0 mi SW 19.6 mph 25.3 mph N/A   Haze
6:35 PM 56.1 °F 31.6 °F 39% 29.59 in 7.0 mi SW 11.5 mph - N/A   Scattered Clouds
6:55 PM 55.6 °F 32.0 °F 41% 29.60 in 7.0 mi SW 10.4 mph - N/A   Mostly Cloudy
7:15 PM 54.7 °F 32.2 °F 42% 29.61 in 7.0 mi SW 8.1 mph - N/A   Mostly Cloudy
7:35 PM 54.0 °F 32.4 °F 44% 29.61 in 10.0 mi WSW 8.1 mph - N/A   Overcast
7:55 PM 53.2 °F 33.3 °F 47% 29.62 in 10.0 mi WSW 5.8 mph - N/A   Overcast
8:15 PM 52.2 °F 34.3 °F 51% 29.62 in 10.0 mi WSW 5.8 mph - N/A   Overcast
8:35 PM 51.3 °F 35.1 °F 54% 29.63 in 10.0 mi WSW 3.5 mph - N/A   Overcast
9:15 PM 50.9 °F 36.5 °F 58% 29.64 in 10.0 mi South 6.9 mph - N/A   Overcast
9:35 PM 50.5 °F 37.9 °F 62% 29.64 in 10.0 mi SSW 6.9 mph - N/A   Overcast
9:55 PM 50.7 °F 36.9 °F 59% 29.64 in 10.0 mi SSW 5.8 mph - N/A   Overcast
10:15 PM 50.5 °F 36.9 °F 59% 29.63 in 10.0 mi South 5.8 mph - N/A   Overcast
10:35 PM 50.0 °F 38.1 °F 64% 29.63 in 10.0 mi SSE 4.6 mph - N/A   Overcast
10:55 PM 48.9 °F 38.3 °F 67% 29.64 in 10.0 mi WNW 12.7 mph 21.9 mph N/A   Overcast
11:15 PM 47.5 °F 38.1 °F 70% 29.64 in 10.0 mi WNW 8.1 mph - N/A   Overcast
11:35 PM 46.6 °F 38.7 °F 74% 29.64 in 10.0 mi NW 4.6 mph - N/A   Overcast
11:55 PM 46.4 °F 38.5 °F 74% 29.63 in 10.0 mi Calm Calm - N/A   Overcast